Location: Unspecified
(0.0000°N, 1.0000°E)
Time: 14:46:33
(UTC+02:00)

Amateur Radio Satellites - All Passes

Search period start: 01 July 2015 14:16
Search period end: 02 July 2015 14:16
Location: Unspecified, 0.0000°N, 1.0000°E

Satellite Date Start Highest point End Downlink Frequencies (MHz)
Time Altitude Azimuth
Oscar 19 01 Jul 14:25:07 14:29:25 28° 79° (E) 14:33:49 437.125/150
JUGNU 01 Jul 14:58:03 15:04:03 88° 336° (NNW) 15:10:06 437.505
TISAT 1 01 Jul 15:13:08 15:14:02 10° 280° (W) 15:14:35 437.305
PCSat 01 Jul 15:17:37 15:18:30 11° 113° (ESE) 15:19:51 145.827
BEESAT 01 Jul 15:25:41 15:30:28 84° 281° (W) 15:35:16 436.000
Gurwin Techsat 1B 01 Jul 15:38:57 15:43:59 45° 78° (ENE) 15:49:03 435.225
SWISSCUBE 01 Jul 15:40:53 15:45:28 47° 282° (WNW) 15:50:03 437.505
SRMSAT 01 Jul 15:42:42 15:48:32 53° 160° (SSE) 15:54:23 437.500
ITUPSAT 1 01 Jul 15:44:18 15:48:55 49° 282° (WNW) 15:53:33 437.325
KKS-1 01 Jul 16:03:52 16:07:45 31° 101° (ESE) 16:11:43 437.445
Oscar 19 01 Jul 16:05:06 16:08:39 18° 259° (W) 16:11:56 437.125/150
ITAMSAT 1 01 Jul 16:06:36 16:11:49 86° 254° (WSW) 16:17:02 435.822/435.867
AO-7 01 Jul 16:08:27 16:11:53 14° 76° (ENE) 16:16:05 29.400- 29.500
Cosmos 2491 01 Jul 16:11:03 16:19:26 50° 94° (E) 16:27:54 435.465 / 435.565
RS-15 01 Jul 16:12:01 16:23:01 37° 246° (WSW) 16:33:42 29.354- 29.394
YUBILEINY 01 Jul 16:18:53 16:27:16 52° 86° (E) 16:35:48 435.215
SO-50 01 Jul 16:42:59 16:46:04 19° 113° (ESE) 16:49:23 436.795
JUGNU 01 Jul 16:47:53 16:53:14 33° 341° (NNW) 16:58:33 437.505
PCSat 01 Jul 16:56:43 17:01:55 48° 290° (WNW) 17:07:05 145.827
STARS 01 Jul 17:04:41 17:09:01 64° 282° (WNW) 17:13:22 437.465
JAS-2 01 Jul 17:05:46 17:11:24 79° 79° (E) 17:16:37 435.910
HORYU 2 01 Jul 17:16:39 17:21:04 66° 78° (ENE) 17:25:26 437.375
Gurwin Techsat 1B 01 Jul 17:22:13 17:23:54 11° 259° (W) 17:25:07 435.225
AIST 1 01 Jul 17:24:00 17:28:07 41° 274° (W) 17:32:13
MOZHAYETS 4 01 Jul 17:31:17 17:35:06 26° 101° (E) 17:39:02
SRMSAT 01 Jul 17:31:54 17:37:47 56° 339° (NNW) 17:43:38 437.500
VERMONT LUNAR 01 Jul 17:36:57 17:38:27 13° 41° (NE) 17:40:05 437.305
KKS-1 01 Jul 17:43:01 17:44:18 11° 280° (W) 17:45:13 437.445
AO-7 01 Jul 17:56:21 18:04:38 71° 255° (WSW) 18:12:53 29.400- 29.500
Cosmos 2491 01 Jul 18:09:55 18:16:15 20° 276° (W) 18:21:58 435.465 / 435.565
YUBILEINY 01 Jul 18:18:00 18:24:04 19° 264° (W) 18:29:30 435.215
SO-50 01 Jul 18:23:04 18:26:28 20° 294° (WNW) 18:29:47 436.795
JUGNU 01 Jul 18:39:25 18:42:50 15° 348° (NNW) 18:46:09 437.505
Cubesat XI-IV 01 Jul 18:50:50 18:53:11 14° 79° (E) 18:55:57 437.490
Cosmos 2504 01 Jul 19:02:56 19:11:06 73° 86° (E) 19:19:51 435.465 / 435.565
MOZHAYETS 4 01 Jul 19:09:30 19:12:12 15° 280° (W) 19:14:40
VERMONT LUNAR 01 Jul 19:12:27 19:15:21 29° 222° (SW) 19:18:14 437.305
SRMSAT 01 Jul 19:22:38 19:27:15 23° 344° (NNW) 19:31:47 437.500
CUBESAT XI-V 01 Jul 19:24:33 19:28:47 36° 101° (E) 19:33:03 437.345
BEESAT 3 01 Jul 19:28:40 19:32:09 30° 67° (ENE) 19:35:38 437.485
BEESAT 2 01 Jul 19:35:52 19:39:16 28° 67° (ENE) 19:42:43 435.950
PRISM 01 Jul 19:38:05 19:38:08 10° 100° (E) 19:38:33 437.425
CUTE-I 01 Jul 19:54:45 20:00:07 85° 78° (ENE) 20:05:29 437.470
ISS 01 Jul 20:04:32 20:07:45 75° 235° (SW) 20:10:59 145.825
PHONESAT 2.4 01 Jul 20:15:58 20:19:29 82° 223° (SW) 20:23:01 2401.200-2431.200
Cubesat XI-IV 01 Jul 20:28:16 20:33:12 38° 258° (WSW) 20:38:06 437.490
AIST 2 01 Jul 20:31:03 20:34:29 27° 67° (ENE) 20:37:58 435.215
STRAND 1 01 Jul 20:31:16 20:36:22 72° 102° (ESE) 20:41:29 437.568
O/OREOS (USA 219) 01 Jul 20:37:54 20:42:24 61° 255° (WSW) 20:46:56 437.305
GOMX 1 01 Jul 20:49:04 20:51:51 15° 81° (E) 20:54:57 467.674
BRITE-PL 01 Jul 20:53:33 20:58:32 33° 80° (E) 21:03:34 437.365/2234.400
GONETS M04 01 Jul 20:58:58 21:02:14 13° 83° (E) 21:06:28
Cosmos 2504 01 Jul 21:01:25 21:04:50 12° 262° (W) 21:07:19 435.465 / 435.565
CUSAT 1 01 Jul 21:01:35 21:04:14 44° 86° (E) 21:07:26 437.405
CUBESAT XI-V 01 Jul 21:05:23 21:06:08 10° 280° (W) 21:06:28 437.345
PRISM 01 Jul 21:09:50 21:13:29 29° 281° (W) 21:17:03 437.425
SRMSAT 01 Jul 21:15:12 21:17:13 12° 352° (N) 21:19:10 437.500
SEEDS 01 Jul 21:26:09 21:26:45 10° 81° (E) 21:27:42 437.485
DANDE 01 Jul 21:41:37 21:44:10 51° 263° (W) 21:47:06 436.750
AAUSAT CUBESAT 2 01 Jul 21:45:06 21:46:39 12° 81° (E) 21:48:29 437.432
DOVE 4 01 Jul 21:48:07 21:53:06 45° 80° (E) 21:57:58 437.250
AUBIESAT-1 01 Jul 21:55:42 22:00:09 54° 106° (ESE) 22:04:48 437.475
HO-68 01 Jul 21:57:54 22:04:56 59° 76° (ENE) 22:11:57 435.675
CUTE 1.7 + AOD 2 01 Jul 22:04:31 22:08:39 57° 79° (E) 22:12:46 437.475
COMPASS 1 01 Jul 22:06:05 22:09:47 32° 79° (E) 22:13:31 437.405
CANX-2 01 Jul 22:07:14 22:11:27 74° 79° (E) 22:15:38 2200.000
AIST 2 01 Jul 22:11:55 22:12:57 11° 246° (WSW) 22:13:40 435.215
JUGNU 01 Jul 22:20:56 22:23:03 12° 8° (N) 22:25:14 437.505
GOMX 1 01 Jul 22:24:48 22:29:53 38° 259° (WSW) 22:34:48 467.674
M-CUBED/EXP-1 PRIME 01 Jul 22:26:37 22:31:00 47° 285° (WNW) 22:35:36 437.505
BRITE-PL 01 Jul 22:32:49 22:36:53 19° 260° (W) 22:40:39 437.365/2234.400
CUBEBUG 2 01 Jul 22:34:52 22:38:34 25° 80° (E) 22:42:15 437.445
GONETS M04 01 Jul 22:50:32 22:59:09 67° 266° (W) 23:07:46
ZACube-1 01 Jul 22:52:22 22:55:46 23° 80° (E) 22:59:13 437.345
SEEDS 01 Jul 22:58:50 23:02:28 28° 259° (W) 23:05:59 437.485
CINEMA 3 01 Jul 22:59:16 23:04:06 56° 259° (WSW) 23:08:42 145.822/145.860
Oscar 11 01 Jul 23:07:53 23:12:12 79° 79° (E) 23:16:28 145.826/435.025
ANTELSAT 01 Jul 23:15:52 23:18:13 15° 101° (E) 23:20:51 437.575/2403.000
AAUSAT CUBESAT 2 01 Jul 23:18:47 23:22:09 23° 260° (W) 23:25:24 437.432
Cosmos 2499 01 Jul 23:25:49 23:33:15 37° 86° (E) 23:41:14 435.465 / 435.565
TIGRISAT 01 Jul 23:28:49 23:32:07 21° 101° (E) 23:35:40 435.000
DOVE 4 01 Jul 23:29:03 23:30:41 11° 259° (W) 23:31:52 437.250
FUNcube-1 01 Jul 23:29:05 23:33:31 78° 78° (ENE) 23:37:48 145.935
UWE-3 01 Jul 23:32:21 23:36:50 65° 259° (WSW) 23:41:10 435.000/436.395/437.385
HUMSAT D 01 Jul 23:38:37 23:42:24 34° 80° (E) 23:46:11 437.325/437.525
HO-68 01 Jul 23:48:49 23:52:35 14° 257° (WSW) 23:55:44 435.675
VELOX 1 01 Jul 23:53:10 23:56:23 20° 79° (E) 23:59:45 145.980
DELFI C3 01 Jul 23:57:26 00:00:53 27° 259° (W) 00:04:15 145.870
QB50P1 01 Jul 23:58:55 00:01:35 17° 100° (E) 00:04:27 145.935-145.965
UNISAT 6 02 Jul 00:05:56 00:10:24 76° 101° (ESE) 00:15:00 437.425
JUGNU 02 Jul 00:08:15 00:12:50 23° 16° (NNE) 00:17:27 437.505
CUBEBUG 2 02 Jul 00:12:29 00:15:06 15° 259° (W) 00:17:25 437.445
NANOSAT C BR1 02 Jul 00:13:38 00:17:11 28° 101° (E) 00:20:50 145.865
DX 1 02 Jul 00:14:18 00:18:42 86° 258° (WSW) 00:23:06 434.975-435.025
DUCHIFAT 1 02 Jul 00:21:31 00:25:19 35° 101° (E) 00:29:12 145.980
POLYITAN 1 02 Jul 00:22:08 00:26:03 39° 101° (E) 00:30:02 437.675
50 SAT 02 Jul 00:22:43 00:26:35 67° 79° (E) 00:30:23 437.505
ZACube-1 02 Jul 00:29:24 00:31:59 15° 259° (W) 00:34:19 437.345
AISAT 02 Jul 00:37:52 00:42:23 86° 258° (WSW) 00:46:52 437.250
UKube-1 02 Jul 00:40:40 00:44:45 39° 259° (WSW) 00:48:46 .
ANTELSAT 02 Jul 00:51:05 00:54:51 26° 280° (W) 00:58:36 437.575/2403.000
QB50P2 02 Jul 00:52:06 00:56:17 71° 281° (WNW) 01:00:31 145.880/145.840
BUGSAT 1 02 Jul 00:53:11 00:57:09 61° 101° (ESE) 01:01:07 437.445
POPSAT HIP 1 02 Jul 00:53:42 00:57:53 70° 282° (WNW) 01:02:06 437.405
SRMSAT 02 Jul 00:54:22 00:57:43 15° 12° (NNE) 01:01:09 437.500
ESTCUBE 1 02 Jul 00:57:54 01:02:25 84° 258° (WSW) 01:06:55 437.505/2401.250
TIGRISAT 02 Jul 01:05:41 01:08:46 18° 279° (W) 01:11:41 435.000
CUBEBUG 1 02 Jul 01:06:23 01:10:49 78° 258° (WSW) 01:15:15 437.445
Cosmos 2499 02 Jul 01:19:14 01:26:19 29° 264° (W) 01:33:21 435.465 / 435.565
VELOX 1 02 Jul 01:29:41 01:32:48 18° 259° (W) 01:35:43 145.980
QB50P1 02 Jul 01:34:23 01:37:20 18° 280° (W) 01:40:08 145.935-145.965
TISAT 1 02 Jul 01:40:28 01:44:21 35° 79° (E) 01:48:15 437.305
RS-15 02 Jul 01:43:38 01:52:52 33° 114° (ESE) 02:02:22 29.354- 29.394
NANOSAT C BR1 02 Jul 01:51:43 01:52:56 11° 280° (W) 01:53:48 145.865
JUGNU 02 Jul 01:56:19 02:02:06 59° 21° (NNE) 02:07:52 437.505
SPROUT 02 Jul 02:21:32 02:25:28 32° 259° (W) 02:29:18 437.525
SWISSCUBE 02 Jul 02:26:58 02:29:58 17° 79° (E) 02:33:10 437.505
ITUPSAT 1 02 Jul 02:30:45 02:33:40 17° 79° (E) 02:36:49 437.325
SRMSAT 02 Jul 02:42:07 02:47:24 34° 19° (NNE) 02:52:45 437.500
Oscar 19 02 Jul 02:57:57 03:03:04 72° 103° (ESE) 03:08:13 437.125/150
ITAMSAT 1 02 Jul 03:04:38 03:07:28 15° 101° (E) 03:10:37 435.822/435.867
JUGNU 02 Jul 03:45:29 03:51:09 49° 200° (SSW) 03:56:48 437.505
BEESAT 02 Jul 03:48:05 03:52:36 42° 258° (WSW) 03:57:03 436.000
PCSat 02 Jul 03:50:07 03:54:56 34° 70° (ENE) 03:59:50 145.827
RS-15 02 Jul 03:54:59 04:05:07 41° 293° (WNW) 04:14:56 29.354- 29.394
SWISSCUBE 02 Jul 04:03:49 04:07:42 24° 259° (W) 04:11:26 437.505
ITUPSAT 1 02 Jul 04:07:31 04:11:26 25° 259° (WSW) 04:15:14 437.325
KKS-1 02 Jul 04:16:14 04:20:34 48° 79° (ENE) 04:24:52 437.445
Gurwin Techsat 1B 02 Jul 04:17:14 04:22:28 63° 282° (WNW) 04:27:44 435.225
SRMSAT 02 Jul 04:30:45 04:36:41 87° 204° (SSW) 04:42:40 437.500
AO-7 02 Jul 04:32:10 04:38:24 25° 104° (ESE) 04:45:00 29.400- 29.500
JAS-2 02 Jul 04:35:42 04:42:41 47° 103° (ESE) 04:50:11 435.910
ITAMSAT 1 02 Jul 04:42:15 04:46:52 32° 282° (WNW) 04:51:25 435.822/435.867
Cosmos 2491 02 Jul 04:44:28 04:53:11 87° 266° (W) 05:01:55 435.465 / 435.565
YUBILEINY 02 Jul 04:52:14 05:01:00 84° 274° (W) 05:09:41 435.215
SO-50 02 Jul 04:55:02 04:59:25 37° 67° (ENE) 05:03:44 436.795
STARS 02 Jul 05:16:09 05:20:24 44° 258° (WSW) 05:24:35 437.465
HORYU 2 02 Jul 05:29:15 05:33:43 81° 282° (WNW) 05:38:15 437.375
AIST 1 02 Jul 05:31:14 05:34:59 28° 265° (W) 05:38:38
PCSat 02 Jul 05:35:02 05:38:17 15° 248° (WSW) 05:41:13 145.827
JUGNU 02 Jul 05:36:14 05:40:29 20° 195° (SSW) 05:44:40 437.505
MOZHAYETS 4 02 Jul 05:47:44 05:52:03 44° 79° (E) 05:56:23
SRMSAT 02 Jul 06:20:43 06:26:00 32° 199° (SSW) 06:31:16 437.500
JAS-2 02 Jul 06:22:11 06:27:40 21° 280° (W) 06:33:00 435.910
AO-7 02 Jul 06:23:15 06:31:04 44° 285° (WNW) 06:38:46 29.400- 29.500
SO-50 02 Jul 06:38:21 06:39:51 11° 246° (WSW) 06:40:58 436.795
VERMONT LUNAR 02 Jul 06:42:48 06:45:49 47° 317° (NW) 06:48:49 437.305
CUTE-I 02 Jul 06:56:32 06:59:35 16° 101° (E) 07:02:57 437.470
Cosmos 2504 02 Jul 07:16:04 07:23:51 85° 274° (W) 07:31:08 435.465 / 435.565
BEESAT 3 02 Jul 07:22:39 07:26:16 33° 112° (ESE) 07:29:57 437.485
Cubesat XI-IV 02 Jul 07:27:58 07:32:55 40° 102° (ESE) 07:37:56 437.490
JUGNU 02 Jul 07:28:52 07:30:20 11° 186° (S) 07:31:45 437.505
STRAND 1 02 Jul 07:29:21 07:29:55 10° 80° (E) 07:30:58 437.568
BEESAT 2 02 Jul 07:30:38 07:34:12 32° 113° (ESE) 07:37:52 435.950
ISS 02 Jul 07:37:54 07:41:06 58° 126° (SE) 07:44:18 145.825
PRISM 02 Jul 07:40:34 07:41:44 11° 80° (E) 07:43:12 437.425
CUBESAT XI-V 02 Jul 07:42:38 07:47:16 66° 79° (ENE) 07:51:55 437.345
PHONESAT 2.4 02 Jul 07:54:17 07:57:42 77° 137° (SE) 08:01:07 2401.200-2431.200
CUSAT 1 02 Jul 08:00:34 08:06:29 23° 100° (E) 08:12:15 437.405
SRMSAT 02 Jul 08:12:23 08:15:45 15° 192° (SSW) 08:19:03 437.500
AIST 2 02 Jul 08:29:22 08:33:09 34° 112° (ESE) 08:37:01 435.215
CUTE-I 02 Jul 08:34:49 08:39:34 32° 282° (WNW) 08:44:14 437.470
DANDE 02 Jul 08:41:48 08:49:41 42° 97° (E) 08:57:01 436.750
O/OREOS (USA 219) 02 Jul 08:49:27 08:53:33 34° 285° (WNW) 08:57:33 437.305
STRAND 1 02 Jul 09:04:11 09:09:04 44° 258° (WSW) 09:13:55 437.568
Cubesat XI-IV 02 Jul 09:10:28 09:12:57 13° 281° (W) 09:15:00 437.490
GOMX 1 02 Jul 09:12:08 09:15:12 21° 101° (E) 09:18:29 467.674
PRISM 02 Jul 09:13:35 09:17:04 26° 259° (W) 09:20:28 437.425
BRITE-PL 02 Jul 09:20:59 09:25:02 58° 101° (E) 09:29:10 437.365/2234.400
GONETS M04 02 Jul 09:29:01 09:36:18 31° 95° (E) 09:43:51
SEEDS 02 Jul 09:30:32 09:32:29 13° 100° (E) 09:34:44 437.485
CUSAT 1 02 Jul 09:41:28 09:49:12 44° 274° (W) 09:55:52 437.405
CINEMA 3 02 Jul 09:42:28 09:43:00 10° 101° (E) 09:43:55 145.822/145.860
AAUSAT CUBESAT 2 02 Jul 09:48:40 09:50:56 15° 100° (E) 09:53:26 437.432
HO-68 02 Jul 09:49:33 09:56:22 50° 104° (ESE) 10:03:17 435.675
AUBIESAT-1 02 Jul 09:58:31 10:01:49 44° 76° (ENE) 10:04:59 437.475
DOVE 4 02 Jul 10:09:10 10:13:21 79° 103° (ESE) 10:17:43 437.250
COMPASS 1 02 Jul 10:10:36 10:14:32 39° 101° (E) 10:18:32 437.405
CUTE 1.7 + AOD 2 02 Jul 10:10:59 10:15:15 74° 101° (E) 10:19:33 437.475
CANX-2 02 Jul 10:13:50 10:18:08 87° 285° (WNW) 10:22:27 2200.000
DANDE 02 Jul 10:25:39 10:32:41 27° 275° (W) 10:38:51 436.750
M-CUBED/EXP-1 PRIME 02 Jul 10:30:08 10:33:20 34° 254° (WSW) 10:36:23 437.505
CUBEBUG 2 02 Jul 10:46:48 10:50:46 36° 101° (ESE) 10:54:55 437.445
GOMX 1 02 Jul 10:51:01 10:53:17 14° 279° (W) 10:55:19 467.674
ZACube-1 02 Jul 11:01:46 11:05:34 31° 101° (E) 11:09:32 437.345
SEEDS 02 Jul 11:04:42 11:08:09 24° 280° (W) 11:11:33 437.485
JUGNU 02 Jul 11:06:48 11:10:29 17° 167° (SSE) 11:14:17 437.505
CINEMA 3 02 Jul 11:16:14 11:20:03 31° 280° (W) 11:23:57 145.822/145.860
UKube-1 02 Jul 11:16:35 11:17:37 11° 100° (E) 11:18:59 .
Oscar 11 02 Jul 11:16:37 11:20:58 76° 281° (WNW) 11:25:19 145.826/435.025
AAUSAT CUBESAT 2 02 Jul 11:23:10 11:26:25 21° 280° (W) 11:29:32 437.432
GONETS M04 02 Jul 11:25:10 11:33:01 34° 275° (W) 11:40:35
ANTELSAT 02 Jul 11:28:52 11:32:11 21° 80° (E) 11:35:33 437.575/2403.000
Cosmos 2499 02 Jul 11:37:05 11:44:04 44° 95° (E) 11:50:46 435.465 / 435.565
FUNcube-1 02 Jul 11:38:40 11:42:58 76° 281° (W) 11:47:24 145.935
HO-68 02 Jul 11:39:22 11:44:02 17° 283° (WNW) 11:48:13 435.675
TIGRISAT 02 Jul 11:41:57 11:45:51 31° 80° (E) 11:49:44 435.000
HUMSAT D 02 Jul 11:43:39 11:47:36 41° 101° (E) 11:51:40 437.325/437.525
UWE-3 02 Jul 11:43:41 11:47:49 44° 281° (W) 11:52:04 435.000/436.395/437.385
SRMSAT 02 Jul 11:53:57 11:56:19 12° 172° (S) 11:58:46 437.500
DELFI C3 02 Jul 11:57:42 12:01:13 27° 280° (W) 12:04:41 145.870
VELOX 1 02 Jul 12:04:39 12:08:23 29° 101° (E) 12:12:14 145.980
QB50P1 02 Jul 12:05:03 12:08:16 22° 80° (E) 12:11:37 145.935-145.965
50 SAT 02 Jul 12:19:29 12:23:21 59° 101° (E) 12:27:17 437.505
NANOSAT C BR1 02 Jul 12:19:45 12:23:39 35° 79° (E) 12:27:32 145.865
UNISAT 6 02 Jul 12:19:55 12:24:23 68° 258° (WSW) 12:28:42 437.425
DX 1 02 Jul 12:24:12 12:28:28 61° 281° (WNW) 12:32:45 434.975-435.025
DUCHIFAT 1 02 Jul 12:27:30 12:31:35 44° 79° (E) 12:35:38 145.980
POLYITAN 1 02 Jul 12:28:54 12:33:04 50° 79° (E) 12:37:13 437.675
ZACube-1 02 Jul 12:40:51 12:41:52 10° 279° (W) 12:42:32 437.345
UKube-1 02 Jul 12:49:52 12:53:38 29° 281° (W) 12:57:21 .
AISAT 02 Jul 12:50:15 12:54:32 57° 282° (WNW) 12:58:51 437.250
JUGNU 02 Jul 12:54:29 12:59:59 38° 161° (SSE) 13:05:32 437.505
SPROUT 02 Jul 12:55:48 12:57:36 13° 100° (E) 12:59:41 437.525
BUGSAT 1 02 Jul 12:56:31 13:00:47 72° 79° (ENE) 13:05:01 437.445
QB50P2 02 Jul 12:58:59 13:03:11 55° 258° (WSW) 13:07:22 145.880/145.840
POPSAT HIP 1 02 Jul 13:00:25 13:04:39 55° 259° (W) 13:08:48 437.405
ANTELSAT 02 Jul 13:05:59 13:08:50 16° 259° (W) 13:11:25 437.575/2403.000
ESTCUBE 1 02 Jul 13:12:21 13:16:45 52° 281° (WNW) 13:21:08 437.505/2401.250
CUBEBUG 1 02 Jul 13:16:58 13:21:11 54° 281° (WNW) 13:25:24 437.445
TIGRISAT 02 Jul 13:21:14 13:22:28 11° 259° (W) 13:23:20 435.000
RS-15 02 Jul 13:24:46 13:34:23 30° 66° (ENE) 13:44:43 29.354- 29.394
Cosmos 2499 02 Jul 13:32:20 13:37:03 17° 275° (W) 13:41:06 435.465 / 435.565
QB50P1 02 Jul 13:41:27 13:44:01 15° 260° (W) 13:46:20 145.935-145.965
SRMSAT 02 Jul 13:41:32 13:46:17 24° 164° (SSE) 13:51:06 437.500
VELOX 1 02 Jul 13:43:08 13:44:51 12° 280° (W) 13:46:15 145.980
TISAT 1 02 Jul 13:46:13 13:50:09 42° 101° (ESE) 13:54:07 437.305
Oscar 19 02 Jul 13:56:32 13:57:39 11° 80° (E) 13:59:13 437.125/150
